FW4376 Weather Reports


time (UTC)temp
C
wind
direction
speed
KPH
gust
KPH
rain 1hr
cm
rain 24hr
cm
rain mn
cm
humidity
%
barometer
mb
20220812003012 34 107 1.6 6.4 0.00 0.20 0.00 42 1012.8
20220812001513 34 131 1.6 9.7 0.00 0.20 0.00 42 1012.7
20220812000024 34 71 3.2 8.0 0.00 0.20 0.00 42 1012.9
20220811234514 34 111 1.6 4.8 0.00 0.53 0.00 41 1013.0
20220811233007 35 94 1.6 6.4 0.00 0.53 0.00 40 1013.0
20220811231508 35 4 0.0 8.0 0.00 0.53 0.00 39 1013.0
20220811230014 36 108 3.2 8.0 0.00 0.53 0.00 40 1013.1
20220811224504 36 103 3.2 8.0 0.00 3.23 0.00 38 1013.1
20220811223003 36 226 0.0 8.0 0.00 3.23 0.00 41 1013.0
20220811221501 37 263 1.6 8.0 0.00 3.23 0.00 38 1013.2
20220811220207 37 84 1.6 11.3 0.00 3.23 0.00 39 1013.3
20220811214559 37 123 3.2 9.7 0.00 4.47 0.00 37 1013.3
20220811213103 37 349 3.2 8.0 0.00 4.47 0.00 39 1013.5
20220811211555 37 96 3.2 14.5 0.00 4.47 0.00 38 1013.8
20220811210102 37 27 1.6 8.0 0.00 4.47 0.00 38 1014.0
20220811204628 36 139 3.2 6.4 0.00 5.05 0.00 40 1014.1
20220811203050 36 358 1.6 4.8 0.00 5.05 0.00 45 1014.1
20220811201544 35 56 1.6 8.0 0.00 5.05 0.00 49 1014.3
20220811200132 35 93 1.6 6.4 0.00 5.05 0.00 49 1014.6
20220811194541 35 275 3.2 6.4 0.00 5.05 0.00 48 1014.9
20220811193052 35 162 1.6 8.0 0.00 5.05 0.00 48 1015.2
20220811191633 36 274 0.0 4.8 0.00 5.05 0.00 46 1015.4
20220811190036 35 110 1.6 8.0 0.00 5.05 0.00 51 1015.6
20220811184538 35 151 1.6 6.4 0.00 5.05 0.00 51 1015.8
20220811183035 35 321 0.0 6.4 0.00 5.05 0.00 52 1016.1
20220811181536 35 27 1.6 4.8 0.00 5.05 0.00 54 1016.3
20220811180026 34 268 1.6 6.4 0.00 5.05 0.00 54 1016.4
20220811174550 33 255 0.0 6.4 0.00 5.05 0.00 57 1016.5
20220811173017 33 77 1.6 8.0 0.00 5.05 0.00 58 1016.8
20220811171523 32 256 0.0 4.8 0.00 5.05 0.00 61 1017.0
20220811170028 33 109 1.6 6.4 0.00 5.05 0.00 59 1017.0
20220811164515 32 109 0.0 6.4 0.00 5.05 0.00 62 1017.1
20220811163010 31 288 1.6 8.0 0.00 5.05 0.00 63 1017.1
20220811161509 31 120 1.6 4.8 0.00 5.05 0.00 66 1017.2
20220811160004 31 25 1.6 4.8 0.00 5.05 0.00 68 1017.1
20220811154610 30 184 1.6 4.8 0.00 5.05 0.00 69 1017.3
20220811153106 30 299 1.6 6.4 0.00 5.05 0.00 72 1017.2
20220811151619 29 74 0.0 4.8 0.00 5.05 0.00 73 1017.0
20220811150055 30 37 0.0 4.8 0.00 5.05 0.00 74 1017.3
20220811144550 28 131 0.0 3.2 0.00 5.05 0.00 77 1017.4
20220811143050 28 117 0.0 3.2 0.00 5.05 0.00 76 1017.1
20220811141605 29 23 0.0 1.6 0.00 5.05 0.00 77 1017.3
20220811140106 28 60 0.0 1.6 0.00 5.05 0.00 78 1017.2
20220811134604 27 96 0.0 1.6 0.00 5.05 0.00 84 1017.0
20220811133051 26 255 0.0 1.6 0.00 5.05 0.00 85 1017.0
20220811131551 25 250 0.0 0.0 0.00 5.05 0.00 91 1017.0
20220811130033 23 250 0.0 0.0 0.00 5.05 0.00 93 1017.0
20220811124601 23 250 0.0 1.6 0.00 5.05 0.00 95 1017.0
20220811123032 22 250 0.0 1.6 0.00 5.05 0.00 95 1016.9
20220811121528 22 139 0.0 0.0 0.00 5.05 0.00 95 1017.0
20220811120026 22 120 0.0 1.6 0.00 5.05 0.00 95 1017.0
20220811114525 22 146 0.0 1.6 0.00 5.05 0.00 95 1016.9
20220811113027 21 166 0.0 0.0 0.00 5.05 0.00 95 1016.8
20220811111541 21 166 0.0 0.0 0.00 5.05 0.00 95 1016.7
20220811110023 22 166 0.0 0.0 0.00 5.05 0.00 95 1016.7
20220811104522 22 166 0.0 0.0 0.00 5.05 0.00 95 1016.7
20220811103040 22 180 0.0 0.0 0.00 5.05 0.00 94 1016.7
20220811101519 22 180 0.0 0.0 0.00 5.05 0.00 94 1016.7
20220811100052 22 180 0.0 0.0 0.00 5.05 0.00 94 1016.6
20220811094532 22 163 0.0 0.0 0.00 5.05 0.00 94 1016.6
20220811093019 22 163 0.0 0.0 0.00 5.05 0.00 94 1016.7
20220811091517 22 166 0.0 0.0 0.00 5.05 0.00 94 1016.6
20220811090018 22 220 0.0 0.0 0.00 5.05 0.00 94 1016.7
20220811084517 22 220 0.0 0.0 0.00 5.05 0.00 94 1016.6
20220811083025 22 220 0.0 1.6 0.00 5.05 0.00 94 1016.6
20220811081520 22 231 0.0 1.6 0.00 5.05 0.00 93 1016.6
20220811080029 22 251 0.0 1.6 0.00 5.05 0.00 93 1016.6
20220811074527 22 216 0.0 3.2 0.00 5.05 0.00 93 1016.5
20220811073011 22 197 0.0 0.0 0.00 5.05 0.00 93 1016.6
20220811071509 22 200 0.0 0.0 0.00 5.05 0.00 92 1016.6
20220811070023 23 157 0.0 1.6 0.00 5.05 0.00 92 1016.7
20220811064520 23 108 0.0 1.6 0.00 5.05 0.00 91 1016.8
20220811063012 23 107 0.0 1.6 0.00 5.05 0.00 90 1016.8
20220811061505 23 245 3.2 8.0 0.00 5.05 0.00 90 1016.6
20220811060002 23 238 0.0 4.8 0.00 5.05 0.00 91 1016.7
20220811054505 23 238 0.0 3.2 0.00 5.05 0.00 92 1016.7
20220811053112 23 141 0.0 1.6 0.00 5.05 0.00 91 1016.7
20220811051559 23 158 0.0 1.6 0.00 5.05 0.00 91 1016.8
20220811050057 23 141 0.0 3.2 0.00 5.05 0.00 91 1016.8
20220811044605 23 160 0.0 6.4 0.00 5.05 5.05 91 1016.9
20220811043115 23 138 0.0 4.8 0.00 5.05 5.05 91 1016.8
20220811041650 23 115 0.0 4.8 0.00 5.05 5.05 90 1016.9
20220811040054 23 153 0.0 3.2 0.00 5.05 5.05 90 1017.0
20220811034716 23 164 0.0 0.0 0.00 5.05 5.05 90 1016.8
20220811033100 23 91 0.0 3.2 0.00 5.05 5.05 89 1016.7
20220811030049 23 105 1.6 8.0 0.00 5.05 5.05 89 1016.6
20220811024622 23 94 0.0 4.8 0.00 5.05 5.05 89 1016.6
20220811023059 23 126 0.0 3.2 0.00 5.05 5.05 90 1016.0
20220811021545 23 134 0.0 0.0 0.00 5.05 5.05 90 1015.7
20220811020045 23 101 0.0 0.0 0.00 5.05 5.05 89 1015.4
20220811014557 23 117 0.0 0.0 0.00 5.05 5.05 88 1015.2
20220811013055 23 152 0.0 1.6 0.00 5.05 5.05 88 1015.1
20220811011609 23 232 0.0 1.6 0.00 5.05 5.05 88 1015.0
20220811010048 23 289 0.0 3.2 0.20 5.05 5.05 88 1014.8
20220811004543 23 229 0.0 6.4 0.23 5.05 5.05 86 1014.4